Time,TemperatureF,DewpointF,PressureIn,WindDirection,WindDirectionDegrees,WindSpeedMPH,WindSpeedGustMPH,Humidity,HourlyPrecipIn,Conditions,Clouds,dailyrainin,SoftwareType,DateUTC
2013-03-08 00:00:00,19.3,13.9,30.13,SSE,153,13.1,17.3,79,0.00,CLR,SKC,0.00,WeatherDisplay:10.37,2013-03-08 06:00:00,
2013-03-08 00:05:00,19.4,13.7,30.13,SSE,157,14.0,16.1,78,0.00,CLR,SKC,0.00,WeatherDisplay:10.37,2013-03-08 06:05:00,
2013-03-08 00:10:00,19.4,13.7,30.13,SSE,148,13.3,15.0,78,0.00,CLR,SKC,0.00,WeatherDisplay:10.37,2013-03-08 06:10:00,
2013-03-08 00:15:00,19.0,13.3,30.13,SSE,150,11.6,14.0,78,0.00,CLR,SKC,0.00,WeatherDisplay:10.37,2013-03-08 06:15:00,
2013-03-08 00:20:00,18.5,12.8,30.12,SE,143,12.1,13.8,78,0.00,CLR,SKC,0.00,WeatherDisplay:10.37,2013-03-08 06:20:00,
2013-03-08 00:25:00,18.0,12.3,30.13,SSE,157,10.7,12.7,78,0.00,CLR,SKC,0.00,WeatherDisplay:10.37,2013-03-08 06:25:00,
2013-03-08 00:30:00,17.6,11.9,30.13,SSE,156,9.5,11.5,78,0.00,CLR,SKC,0.00,WeatherDisplay:10.37,2013-03-08 06:30:00,
2013-03-08 00:35:00,17.7,12.3,30.13,SSE,155,10.5,13.0,79,0.00,CLR,SKC,0.00,WeatherDisplay:10.37,2013-03-08 06:35:00,
2013-03-08 00:40:00,17.6,12.2,30.13,SSE,153,9.6,11.5,79,0.00,CLR,SKC,0.00,WeatherDisplay:10.37,2013-03-08 06:40:00,
2013-03-08 00:45:00,17.5,11.8,30.13,SE,143,7.8,10.4,78,0.00,CLR,SKC,0.00,WeatherDisplay:10.37,2013-03-08 06:45:00,
2013-03-08 00:50:00,17.6,12.2,30.13,SE,141,8.9,11.5,79,0.00,CLR,SKC,0.00,WeatherDisplay:10.37,2013-03-08 06:50:00,
2013-03-08 00:55:00,17.6,12.2,30.14,SE,134,8.7,11.5,79,0.00,CLR,SKC,0.00,WeatherDisplay:10.37,2013-03-08 06:55:00,
2013-03-08 01:00:00,17.4,11.7,30.14,SSE,154,7.0,9.2,78,0.00,CLR,SKC,0.00,WeatherDisplay:10.37,2013-03-08 07:00:00,
2013-03-08 01:05:00,17.1,11.4,30.14,SSE,157,7.0,9.2,78,0.00,CLR,SKC,0.00,WeatherDisplay:10.37,2013-03-08 07:05:00,
2013-03-08 01:10:00,16.5,10.8,30.14,SSE,156,6.5,7.0,78,0.00,CLR,SKC,0.00,WeatherDisplay:10.37,2013-03-08 07:10:00,
2013-03-08 01:15:00,15.9,10.3,30.14,SSE,156,6.1,8.1,78,0.00,CLR,SKC,0.00,WeatherDisplay:10.37,2013-03-08 07:15:00,
2013-03-08 01:20:00,15.5,9.9,30.14,SE,140,7.9,9.2,78,0.00,CLR,SKC,0.00,WeatherDisplay:10.37,2013-03-08 07:20:00,
2013-03-08 01:25:00,15.7,10.3,30.14,SE,143,7.8,9.2,79,0.00,CLR,SKC,0.00,WeatherDisplay:10.37,2013-03-08 07:25:00,
2013-03-08 01:30:00,15.2,9.6,30.14,SE,134,6.6,8.1,78,0.00,CLR,SKC,0.00,WeatherDisplay:10.37,2013-03-08 07:30:00,
2013-03-08 01:35:00,14.7,9.1,30.14,SE,142,8.0,9.2,78,0.00,CLR,SKC,0.00,WeatherDisplay:10.37,2013-03-08 07:35:00,
2013-03-08 01:40:00,15.0,9.9,30.14,SE,135,7.8,10.4,80,0.00,CLR,SKC,0.00,WeatherDisplay:10.37,2013-03-08 07:40:00,
2013-03-08 01:45:00,15.3,10.2,30.14,SE,141,8.2,11.5,80,0.00,CLR,SKC,0.00,WeatherDisplay:10.37,2013-03-08 07:45:00,
2013-03-08 01:50:00,15.5,10.4,30.14,SSE,153,8.0,10.4,80,0.00,CLR,SKC,0.00,WeatherDisplay:10.37,2013-03-08 07:50:00,
2013-03-08 01:55:00,15.2,9.9,30.14,SSE,154,7.0,9.2,79,0.00,CLR,SKC,0.00,WeatherDisplay:10.37,2013-03-08 07:55:00,
2013-03-08 02:00:00,14.5,8.9,30.14,SSE,150,6.2,7.0,78,0.00,CLR,SKC,0.00,WeatherDisplay:10.37,2013-03-08 08:00:00,
2013-03-08 02:06:00,13.9,8.3,30.14,SSE,151,6.0,10.0,78,0.00,CLR,SKC,0.00,WeatherDisplay:10.37,2013-03-08 08:06:00,
2013-03-08 02:11:00,13.8,8.5,30.14,SSE,151,6.7,8.1,79,0.00,CLR,SKC,0.00,WeatherDisplay:10.37,2013-03-08 08:11:00,
2013-03-08 02:16:00,13.9,8.6,30.14,SSE,154,4.6,6.9,79,0.00,CLR,SKC,0.00,WeatherDisplay:10.37,2013-03-08 08:16:00,
2013-03-08 02:21:00,13.4,8.1,30.13,SSE,153,7.5,8.1,79,0.00,CLR,SKC,0.00,WeatherDisplay:10.37,2013-03-08 08:21:00,
2013-03-08 02:26:00,13.5,8.2,30.13,SSE,148,8.3,11.5,79,0.00,CLR,SKC,0.00,WeatherDisplay:10.37,2013-03-08 08:26:00,
2013-03-08 02:31:00,14.4,9.4,30.14,SSE,158,6.8,8.1,80,0.00,CLR,SKC,0.00,WeatherDisplay:10.37,2013-03-08 08:31:00,
2013-03-08 02:36:00,14.0,8.7,30.13,SSE,158,4.3,5.8,79,0.00,CLR,SKC,0.00,WeatherDisplay:10.37,2013-03-08 08:36:00,
2013-03-08 02:41:00,13.1,7.5,30.13,SSE,158,5.9,7.0,78,0.00,CLR,SKC,0.00,WeatherDisplay:10.37,2013-03-08 08:41:00,
2013-03-08 02:46:00,12.5,6.9,30.13,SSE,152,6.3,7.0,78,0.00,CLR,SKC,0.00,WeatherDisplay:10.37,2013-03-08 08:46:00,
2013-03-08 02:51:00,12.3,7.0,30.13,SSE,155,5.0,6.9,79,0.00,CLR,SKC,0.00,WeatherDisplay:10.37,2013-03-08 08:51:00,
2013-03-08 02:56:00,12.1,6.8,30.13,SSE,155,4.8,6.9,79,0.00,CLR,SKC,0.00,WeatherDisplay:10.37,2013-03-08 08:56:00,
2013-03-08 03:01:00,11.9,6.6,30.13,SSE,159,4.4,5.0,79,0.00,CLR,SKC,0.00,WeatherDisplay:10.37,2013-03-08 09:01:00,
2013-03-08 03:06:00,11.8,6.5,30.12,SSE,159,4.9,5.8,79,0.00,CLR,SKC,0.00,WeatherDisplay:10.37,2013-03-08 09:06:00,
2013-03-08 03:11:00,11.9,6.6,30.12,SSE,159,3.7,4.6,79,0.00,CLR,SKC,0.00,WeatherDisplay:10.37,2013-03-08 09:11:00,
2013-03-08 03:16:00,12.1,6.8,30.12,SSE,155,4.0,6.0,79,0.00,CLR,SKC,0.00,WeatherDisplay:10.37,2013-03-08 09:16:00,
2013-03-08 03:21:00,13.0,8.0,30.12,SE,144,4.5,6.0,80,0.00,CLR,SKC,0.00,WeatherDisplay:10.37,2013-03-08 09:21:00,
2013-03-08 03:26:00,13.5,8.5,30.12,SE,144,5.7,7.0,80,0.00,CLR,SKC,0.00,WeatherDisplay:10.37,2013-03-08 09:26:00,
2013-03-08 03:31:00,13.8,8.8,30.12,SE,136,7.5,10.0,80,0.00,CLR,SKC,0.00,WeatherDisplay:10.37,2013-03-08 09:31:00,
2013-03-08 03:36:00,13.7,8.7,30.12,SSE,156,7.7,10.0,80,0.00,CLR,SKC,0.00,WeatherDisplay:10.37,2013-03-08 09:36:00,
2013-03-08 03:41:00,14.1,9.1,30.12,SSE,153,7.4,9.2,80,0.00,CLR,SKC,0.00,WeatherDisplay:10.37,2013-03-08 09:41:00,
2013-03-08 03:46:00,14.2,9.2,30.12,SSE,155,6.8,9.2,80,0.00,CLR,SKC,0.00,WeatherDisplay:10.37,2013-03-08 09:46:00,
2013-03-08 03:51:00,14.2,8.9,30.12,SSE,151,5.8,8.1,79,0.00,CLR,SKC,0.00,WeatherDisplay:10.37,2013-03-08 09:51:00,
2013-03-08 03:56:00,14.2,8.9,30.12,SE,136,7.0,9.2,79,0.00,CLR,SKC,0.00,WeatherDisplay:10.37,2013-03-08 09:56:00,
2013-03-08 04:01:00,14.2,9.2,30.12,SE,139,4.9,6.0,80,0.00,CLR,SKC,0.00,WeatherDisplay:10.37,2013-03-08 10:01:00,
2013-03-08 04:06:00,13.6,8.0,30.12,SE,141,5.5,7.0,78,0.00,CLR,SKC,0.00,WeatherDisplay:10.37,2013-03-08 10:06:00,
2013-03-08 04:11:00,13.1,7.8,30.12,SE,146,6.3,8.0,79,0.00,CLR,SKC,0.00,WeatherDisplay:10.37,2013-03-08 10:11:00,
2013-03-08 04:16:00,12.8,7.5,30.12,SSE,153,7.1,8.1,79,0.00,CLR,SKC,0.00,WeatherDisplay:10.37,2013-03-08 10:16:00,
2013-03-08 04:21:00,12.8,7.5,30.12,SSE,150,7.6,9.2,79,0.00,CLR,SKC,0.00,WeatherDisplay:10.37,2013-03-08 10:21:00,
2013-03-08 04:26:00,13.1,8.1,30.12,SE,146,7.7,9.2,80,0.00,CLR,SKC,0.00,WeatherDisplay:10.37,2013-03-08 10:26:00,
2013-03-08 04:31:00,13.2,8.2,30.12,SE,144,6.8,8.1,80,0.00,CLR,SKC,0.00,WeatherDisplay:10.37,2013-03-08 10:31:00,
2013-03-08 04:36:00,13.4,8.4,30.12,SE,146,5.9,7.0,80,0.00,CLR,SKC,0.00,WeatherDisplay:10.37,2013-03-08 10:36:00,
2013-03-08 04:41:00,13.7,8.7,30.12,SSE,149,6.7,8.1,80,0.00,CLR,SKC,0.00,WeatherDisplay:10.37,2013-03-08 10:41:00,
2013-03-08 04:46:00,13.8,8.8,30.12,SSE,149,5.9,7.0,80,0.00,CLR,SKC,0.00,WeatherDisplay:10.37,2013-03-08 10:46:00,
2013-03-08 04:51:00,13.7,8.4,30.12,SSE,149,4.9,6.0,79,0.00,CLR,SKC,0.00,WeatherDisplay:10.37,2013-03-08 10:51:00,
2013-03-08 04:56:00,13.3,8.0,30.12,SSE,149,4.4,5.0,79,0.00,CLR,SKC,0.00,WeatherDisplay:10.37,2013-03-08 10:56:00,
2013-03-08 05:01:00,13.0,7.7,30.13,SSE,149,4.1,5.0,79,0.00,CLR,SKC,0.00,WeatherDisplay:10.37,2013-03-08 11:01:00,
2013-03-08 05:06:00,12.8,7.5,30.13,SSE,149,3.7,5.0,79,0.00,CLR,SKC,0.00,WeatherDisplay:10.37,2013-03-08 11:06:00,
2013-03-08 05:11:00,12.5,7.2,30.12,SSE,149,4.7,5.0,79,0.00,CLR,SKC,0.00,WeatherDisplay:10.37,2013-03-08 11:11:00,
2013-03-08 05:16:00,12.3,7.0,30.12,SSE,149,3.9,5.0,79,0.00,CLR,SKC,0.00,WeatherDisplay:10.37,2013-03-08 11:16:00,
2013-03-08 05:21:00,12.0,6.7,30.12,SSE,149,3.4,4.0,79,0.00,CLR,SKC,0.00,WeatherDisplay:10.37,2013-03-08 11:21:00,
2013-03-08 05:26:00,11.8,6.5,30.12,SSE,149,3.3,4.6,79,0.00,CLR,SKC,0.00,WeatherDisplay:10.37,2013-03-08 11:26:00,
2013-03-08 05:31:00,12.2,7.2,30.12,SSE,149,5.5,7.0,80,0.00,CLR,SKC,0.00,WeatherDisplay:10.37,2013-03-08 11:31:00,
2013-03-08 05:36:00,13.0,8.0,30.12,SE,146,6.0,8.1,80,0.00,CLR,SKC,0.00,WeatherDisplay:10.37,2013-03-08 11:36:00,
2013-03-08 05:41:00,13.4,8.4,30.12,SSE,148,4.9,6.9,80,0.00,CLR,SKC,0.00,WeatherDisplay:10.37,2013-03-08 11:41:00,
2013-03-08 05:46:00,13.5,8.5,30.12,SE,145,6.0,8.1,80,0.00,CLR,SKC,0.00,WeatherDisplay:10.37,2013-03-08 11:46:00,
2013-03-08 05:51:00,13.4,8.1,30.12,SSE,153,5.2,6.9,79,0.00,CLR,SKC,0.00,WeatherDisplay:10.37,2013-03-08 11:51:00,
2013-03-08 05:56:00,13.4,8.1,30.12,SE,142,5.3,6.9,79,0.00,CLR,SKC,0.00,WeatherDisplay:10.37,2013-03-08 11:56:00,
2013-03-08 06:01:00,14.1,9.1,30.12,SE,141,3.7,5.8,80,0.00,CLR,SKC,0.00,WeatherDisplay:10.37,2013-03-08 12:01:00,
2013-03-08 06:06:00,14.5,9.7,30.12,SE,139,4.1,6.0,81,0.00,CLR,SKC,0.00,WeatherDisplay:10.37,2013-03-08 12:06:00,
2013-03-08 06:11:00,14.6,9.6,30.12,SSE,148,4.6,8.1,80,0.00,CLR,SKC,0.00,WeatherDisplay:10.37,2013-03-08 12:11:00,
2013-03-08 06:16:00,14.7,9.6,30.12,SSE,148,4.6,6.9,80,0.00,CLR,SKC,0.00,WeatherDisplay:10.37,2013-03-08 12:16:00,
2013-03-08 06:21:00,14.6,9.3,30.11,SSE,150,6.2,8.1,79,0.00,CLR,SKC,0.00,WeatherDisplay:10.37,2013-03-08 12:21:00,
2013-03-08 06:27:00,14.4,9.1,30.11,SSE,147,5.8,8.0,79,0.00,CLR,SKC,0.00,WeatherDisplay:10.37,2013-03-08 12:27:00,
2013-03-08 06:32:00,14.4,9.4,30.12,SE,144,5.1,6.9,80,0.00,CLR,SKC,0.00,WeatherDisplay:10.37,2013-03-08 12:32:00,
2013-03-08 06:37:00,14.7,9.6,30.12,SE,140,5.2,7.0,80,0.00,CLR,SKC,0.00,WeatherDisplay:10.37,2013-03-08 12:37:00,
2013-03-08 06:42:00,14.9,9.8,30.12,SE,144,4.8,6.0,80,0.00,CLR,SKC,0.00,WeatherDisplay:10.37,2013-03-08 12:42:00,
2013-03-08 06:47:00,14.7,9.4,30.12,SE,132,5.1,6.0,79,0.00,CLR,SKC,0.00,WeatherDisplay:10.37,2013-03-08 12:47:00,
2013-03-08 06:53:00,14.4,9.1,30.11,SSE,149,6.0,7.0,79,0.00,CLR,SKC,0.00,WeatherDisplay:10.37,2013-03-08 12:53:00,
2013-03-08 06:58:00,14.4,9.1,30.11,SSE,153,6.4,8.1,79,0.00,CLR,SKC,0.00,WeatherDisplay:10.37,2013-03-08 12:58:00,
2013-03-08 07:04:00,14.6,9.6,30.11,SSE,148,6.7,8.1,80,0.00,CLR,SKC,0.00,WeatherDisplay:10.37,2013-03-08 13:04:00,
2013-03-08 07:09:00,14.8,9.7,30.11,SE,143,5.3,6.0,80,0.00,CLR,SKC,0.00,WeatherDisplay:10.37,2013-03-08 13:09:00,
2013-03-08 07:14:00,15.0,9.9,30.11,SE,144,4.7,6.0,80,0.00,CLR,SKC,0.00,WeatherDisplay:10.37,2013-03-08 13:14:00,
2013-03-08 07:19:00,15.3,10.2,30.11,SSE,147,4.9,6.0,80,0.00,CLR,SKC,0.00,WeatherDisplay:10.37,2013-03-08 13:19:00,
2013-03-08 07:24:00,15.8,10.7,30.11,SSE,150,5.6,7.0,80,0.00,CLR,SKC,0.00,WeatherDisplay:10.37,2013-03-08 13:24:00,
2013-03-08 07:29:00,16.1,11.0,30.11,SE,139,6.1,8.1,80,0.00,CLR,SKC,0.00,WeatherDisplay:10.37,2013-03-08 13:29:00,
2013-03-08 07:34:00,16.5,11.4,30.11,SE,143,7.3,8.1,80,0.00,CLR,SKC,0.00,WeatherDisplay:10.37,2013-03-08 13:34:00,
2013-03-08 07:39:00,17.1,12.0,30.11,SE,134,8.3,10.4,80,0.00,CLR,SKC,0.00,WeatherDisplay:10.37,2013-03-08 13:39:00,
2013-03-08 07:44:00,17.5,12.4,30.11,SSE,150,8.3,10.4,80,0.00,CLR,SKC,0.00,WeatherDisplay:10.37,2013-03-08 13:44:00,
2013-03-08 07:49:00,18.0,12.9,30.11,SSE,148,7.6,9.2,80,0.00,CLR,SKC,0.00,WeatherDisplay:10.37,2013-03-08 13:49:00,
2013-03-08 07:54:00,18.4,13.3,30.11,SSE,148,6.1,8.1,80,0.00,CLR,SKC,0.00,WeatherDisplay:10.37,2013-03-08 13:54:00,
2013-03-08 07:59:00,18.7,13.6,30.11,SE,142,7.5,9.2,80,0.00,CLR,SKC,0.00,WeatherDisplay:10.37,2013-03-08 13:59:00,
2013-03-08 08:04:00,19.0,13.8,30.11,SE,146,5.6,7.0,80,0.00,SCT,SKC,0.00,WeatherDisplay:10.37,2013-03-08 14:04:00,
2013-03-08 08:09:00,19.5,14.3,30.11,SSE,160,6.0,8.1,80,0.00,SCT,SKC,0.00,WeatherDisplay:10.37,2013-03-08 14:09:00,
2013-03-08 08:14:00,20.1,14.9,30.11,SSE,154,7.0,9.0,80,0.00,SCT,SKC,0.00,WeatherDisplay:10.37,2013-03-08 14:14:00,
2013-03-08 08:19:00,20.6,15.4,30.11,SSE,155,7.4,9.2,80,0.00,SCT,SKC,0.00,WeatherDisplay:10.37,2013-03-08 14:19:00,
2013-03-08 08:24:00,21.1,15.6,30.11,SE,131,7.3,10.4,79,0.00,,SKC,0.00,WeatherDisplay:10.37,2013-03-08 14:24:00,
2013-03-08 08:29:00,21.3,15.8,30.11,SSE,157,9.8,11.5,79,0.00,,SKC,0.00,WeatherDisplay:10.37,2013-03-08 14:29:00,
2013-03-08 08:34:00,21.7,16.2,30.11,SSE,153,8.5,10.4,79,0.00,,SKC,0.00,WeatherDisplay:10.37,2013-03-08 14:34:00,
2013-03-08 08:39:00,22.2,16.7,30.11,SSE,158,9.6,11.5,79,0.00,,SKC,0.00,WeatherDisplay:10.37,2013-03-08 14:39:00,
2013-03-08 08:44:00,22.6,17.1,30.11,South,173,7.7,9.2,79,0.00,CLR,SKC,0.00,WeatherDisplay:10.37,2013-03-08 14:44:00,
2013-03-08 08:49:00,23.1,17.3,30.11,SSE,167,7.5,9.2,78,0.00,CLR,SKC,0.00,WeatherDisplay:10.37,2013-03-08 14:49:00,
2013-03-08 08:54:00,23.0,16.9,30.11,South,173,9.4,11.5,77,0.00,CLR,SKC,0.00,WeatherDisplay:10.37,2013-03-08 14:54:00,
2013-03-08 08:59:00,23.0,16.9,30.11,South,169,10.0,12.0,77,0.00,CLR,SKC,0.00,WeatherDisplay:10.37,2013-03-08 14:59:00,
2013-03-08 09:04:00,23.1,17.3,30.10,SSE,165,12.1,14.0,78,0.00,CLR,SKC,0.00,WeatherDisplay:10.37,2013-03-08 15:04:00,
2013-03-08 09:09:00,23.3,17.5,30.10,SSE,163,10.3,13.0,78,0.00,CLR,SKC,0.00,WeatherDisplay:10.37,2013-03-08 15:09:00,
2013-03-08 09:14:00,23.6,17.4,30.10,SSE,164,9.6,12.7,77,0.00,CLR,SKC,0.00,WeatherDisplay:10.37,2013-03-08 15:14:00,
2013-03-08 09:19:00,23.9,17.7,30.10,SSE,164,11.5,12.7,77,0.00,CLR,SKC,0.00,WeatherDisplay:10.37,2013-03-08 15:19:00,
2013-03-08 09:24:00,24.1,18.2,30.10,SSE,162,13.0,15.0,78,0.00,CLR,SKC,0.00,WeatherDisplay:10.37,2013-03-08 15:24:00,
2013-03-08 09:29:00,24.3,18.1,30.10,SSE,159,12.1,16.0,77,0.00,CLR,SKC,0.00,WeatherDisplay:10.37,2013-03-08 15:29:00,
2013-03-08 09:34:00,24.4,18.2,30.10,South,171,11.7,14.0,77,0.00,CLR,SKC,0.00,WeatherDisplay:10.37,2013-03-08 15:34:00,
2013-03-08 09:39:00,24.4,18.5,30.11,SSE,165,10.9,12.7,78,0.00,CLR,SKC,0.00,WeatherDisplay:10.37,2013-03-08 15:39:00,
2013-03-08 09:44:00,24.7,18.8,30.10,SSE,157,11.5,15.0,78,0.00,CLR,SKC,0.00,WeatherDisplay:10.37,2013-03-08 15:44:00,
2013-03-08 09:49:00,25.1,18.9,30.10,SSE,155,11.9,14.0,77,0.00,CLR,SKC,0.00,WeatherDisplay:10.37,2013-03-08 15:49:00,
2013-03-08 09:54:00,25.5,19.3,30.11,SSE,163,12.6,15.0,77,0.00,CLR,SKC,0.00,WeatherDisplay:10.37,2013-03-08 15:54:00,
2013-03-08 09:59:00,26.0,19.8,30.11,SSE,162,11.5,16.1,77,0.00,CLR,SKC,0.00,WeatherDisplay:10.37,2013-03-08 15:59:00,
2013-03-08 10:04:00,26.6,20.4,30.11,SSE,164,11.8,14.0,77,0.00,CLR,SKC,0.00,WeatherDisplay:10.37,2013-03-08 16:04:00,
2013-03-08 10:09:00,26.9,20.7,30.11,South,169,11.6,16.1,77,0.00,CLR,SKC,0.00,WeatherDisplay:10.37,2013-03-08 16:09:00,
2013-03-08 10:14:00,27.2,20.9,30.11,SSE,167,11.7,15.0,77,0.00,CLR,SKC,0.00,WeatherDisplay:10.37,2013-03-08 16:14:00,
2013-03-08 10:19:00,27.6,21.3,30.11,South,170,12.7,15.0,77,0.00,CLR,SKC,0.00,WeatherDisplay:10.37,2013-03-08 16:19:00,
2013-03-08 10:24:00,27.9,21.6,30.10,South,171,15.3,18.4,77,0.00,CLR,SKC,0.00,WeatherDisplay:10.37,2013-03-08 16:24:00,
2013-03-08 10:29:00,28.0,21.7,30.10,SSE,167,13.9,18.4,77,0.00,CLR,SKC,0.00,WeatherDisplay:10.37,2013-03-08 16:29:00,
2013-03-08 10:34:00,28.2,21.9,30.10,SSE,161,14.3,18.4,77,0.00,CLR,SKC,0.00,WeatherDisplay:10.37,2013-03-08 16:34:00,
2013-03-08 10:39:00,28.3,22.0,30.10,SSE,164,16.0,20.0,77,0.00,CLR,SKC,0.00,WeatherDisplay:10.37,2013-03-08 16:39:00,
2013-03-08 10:44:00,28.4,22.1,30.09,SSE,162,15.2,19.6,77,0.00,SCT,SKC,0.00,WeatherDisplay:10.37,2013-03-08 16:44:00,
2013-03-08 10:49:00,28.5,22.2,30.09,SSE,167,16.0,19.6,77,0.00,SCT,SKC,0.00,WeatherDisplay:10.37,2013-03-08 16:49:00,
2013-03-08 10:54:00,28.7,22.4,30.09,SSE,155,12.3,16.1,77,0.00,SCT,SKC,0.00,WeatherDisplay:10.37,2013-03-08 16:54:00,
2013-03-08 10:59:00,29.0,22.7,30.09,SSE,167,14.8,17.3,77,0.00,SCT,SKC,0.00,WeatherDisplay:10.37,2013-03-08 16:59:00,
2013-03-08 11:04:00,29.2,22.9,30.09,SSE,151,12.6,17.3,77,0.00,CLR,SKC,0.00,WeatherDisplay:10.37,2013-03-08 17:04:00,
2013-03-08 11:09:00,29.5,23.2,30.10,SSE,166,13.5,15.0,77,0.00,CLR,SKC,0.00,WeatherDisplay:10.37,2013-03-08 17:09:00,
2013-03-08 11:14:00,29.5,22.9,30.09,SSE,161,15.0,17.3,76,0.00,CLR,SKC,0.00,WeatherDisplay:10.37,2013-03-08 17:14:00,
2013-03-08 11:19:00,29.5,22.9,30.09,SSE,164,14.0,18.4,76,0.00,CLR,SKC,0.00,WeatherDisplay:10.37,2013-03-08 17:19:00,
2013-03-08 11:24:00,29.7,23.4,30.09,SSE,161,15.9,19.6,77,0.00,CLR,SKC,0.00,WeatherDisplay:10.37,2013-03-08 17:24:00,
2013-03-08 11:29:00,29.8,23.2,30.09,SSE,158,15.1,19.0,76,0.00,CLR,SKC,0.00,WeatherDisplay:10.37,2013-03-08 17:29:00,
2013-03-08 11:34:00,30.0,23.7,30.09,SSE,156,13.6,18.4,77,0.00,CLR,SKC,0.00,WeatherDisplay:10.37,2013-03-08 17:34:00,
2013-03-08 11:39:00,30.2,23.9,30.09,SSE,161,14.2,18.0,77,0.00,CLR,SKC,0.00,WeatherDisplay:10.37,2013-03-08 17:39:00,
2013-03-08 11:44:00,30.3,23.6,30.08,SSE,168,13.4,17.3,76,0.00,CLR,SKC,0.00,WeatherDisplay:10.37,2013-03-08 17:44:00,
2013-03-08 11:49:00,30.6,23.9,30.08,SSE,161,13.0,15.0,76,0.00,CLR,SKC,0.00,WeatherDisplay:10.37,2013-03-08 17:49:00,
2013-03-08 11:54:00,31.0,24.3,30.08,SSE,162,13.6,16.1,76,0.00,CLR,SKC,0.00,WeatherDisplay:10.37,2013-03-08 17:54:00,
2013-03-08 11:59:00,31.0,24.3,30.08,SSE,157,13.1,16.1,76,0.00,CLR,SKC,0.00,WeatherDisplay:10.37,2013-03-08 17:59:00,
2013-03-08 12:04:00,31.1,24.4,30.08,SSE,167,15.1,17.3,76,0.00,CLR,SKC,0.00,WeatherDisplay:10.37,2013-03-08 18:04:00,
2013-03-08 12:09:00,31.4,24.7,30.08,SSE,165,13.6,16.1,76,0.00,CLR,SKC,0.00,WeatherDisplay:10.37,2013-03-08 18:09:00,
2013-03-08 12:14:00,31.7,25.0,30.08,SSE,163,12.9,15.0,76,0.00,CLR,SKC,0.00,WeatherDisplay:10.37,2013-03-08 18:14:00,
2013-03-08 12:19:00,31.8,25.1,30.07,SSE,161,13.4,15.0,76,0.00,CLR,SKC,0.00,WeatherDisplay:10.37,2013-03-08 18:19:00,
2013-03-08 12:24:00,32.1,25.4,30.07,SSE,148,14.1,17.3,76,0.00,CLR,SKC,0.00,WeatherDisplay:10.37,2013-03-08 18:24:00,
2013-03-08 12:29:00,32.1,25.4,30.07,SSE,161,15.9,19.6,76,0.00,CLR,SKC,0.00,WeatherDisplay:10.37,2013-03-08 18:29:00,
2013-03-08 12:34:00,32.2,25.5,30.07,SSE,156,14.0,17.0,76,0.00,CLR,SKC,0.00,WeatherDisplay:10.37,2013-03-08 18:34:00,
2013-03-08 12:39:00,32.5,25.8,30.06,SE,143,14.3,18.4,76,0.00,CLR,SKC,0.00,WeatherDisplay:10.37,2013-03-08 18:39:00,
2013-03-08 12:44:00,32.7,26.0,30.06,SSE,147,14.0,16.1,76,0.00,CLR,SKC,0.00,WeatherDisplay:10.37,2013-03-08 18:44:00,
2013-03-08 12:49:00,32.9,25.8,30.06,SSE,157,15.1,17.3,75,0.01,RA,SKC,0.01,WeatherDisplay:10.37,2013-03-08 18:49:00,
2013-03-08 12:54:00,32.9,25.8,30.06,SSE,159,15.5,18.4,75,0.01,RA,SKC,0.01,WeatherDisplay:10.37,2013-03-08 18:54:00,
2013-03-08 12:59:00,33.0,25.9,30.06,SSE,158,15.3,19.0,75,0.01,CLR,SKC,0.01,WeatherDisplay:10.37,2013-03-08 18:59:00,
2013-03-08 13:05:00,33.1,26.4,30.05,SSE,156,14.1,18.4,76,0.01,CLR,SKC,0.01,WeatherDisplay:10.37,2013-03-08 19:05:00,
2013-03-08 13:10:00,33.2,26.5,30.05,SSE,157,14.6,18.4,76,0.01,CLR,SKC,0.01,WeatherDisplay:10.37,2013-03-08 19:10:00,
2013-03-08 13:15:00,33.4,26.6,30.05,SSE,159,13.4,17.3,76,0.01,CLR,SKC,0.01,WeatherDisplay:10.37,2013-03-08 19:15:00,
2013-03-08 13:20:00,33.6,26.5,30.05,SSE,157,14.1,16.1,75,0.02,RA,SKC,0.02,WeatherDisplay:10.37,2013-03-08 19:20:00,
2013-03-08 13:26:00,33.8,26.7,30.05,SSE,157,13.2,16.1,75,0.02,RA,SKC,0.02,WeatherDisplay:10.37,2013-03-08 19:26:00,
2013-03-08 13:31:00,33.9,26.8,30.05,SSE,159,13.3,18.4,75,0.02,CLR,SKC,0.02,WeatherDisplay:10.37,2013-03-08 19:31:00,
2013-03-08 13:37:00,33.9,26.8,30.05,SSE,165,13.3,15.0,75,0.02,CLR,SKC,0.02,WeatherDisplay:10.37,2013-03-08 19:37:00,
2013-03-08 13:42:00,33.8,26.7,30.05,SSE,156,12.6,15.0,75,0.02,CLR,SKC,0.02,WeatherDisplay:10.37,2013-03-08 19:42:00,
2013-03-08 13:47:00,33.9,26.8,30.05,SSE,163,11.1,12.7,75,0.01,CLR,SKC,0.02,WeatherDisplay:10.37,2013-03-08 19:47:00,
2013-03-08 13:52:00,34.1,27.0,30.05,SSE,163,11.2,13.8,75,0.02,RA,SKC,0.03,WeatherDisplay:10.37,2013-03-08 19:52:00,
2013-03-08 13:57:00,34.3,27.2,30.05,SSE,163,10.5,12.7,75,0.02,RA,SKC,0.03,WeatherDisplay:10.37,2013-03-08 19:57:00,
2013-03-08 14:02:00,34.3,27.2,30.05,SE,144,12.3,14.0,75,0.02,CLR,SKC,0.03,WeatherDisplay:10.37,2013-03-08 20:02:00,
2013-03-08 14:07:00,34.4,27.3,30.04,SSE,153,13.6,16.1,75,0.02,CLR,SKC,0.03,WeatherDisplay:10.37,2013-03-08 20:07:00,
2013-03-08 14:12:00,34.6,27.5,30.04,SSE,155,12.4,15.0,75,0.03,RA,SKC,0.04,WeatherDisplay:10.37,2013-03-08 20:12:00,
2013-03-08 14:17:00,34.7,27.6,30.04,SSE,161,13.4,16.1,75,0.03,RA,SKC,0.04,WeatherDisplay:10.37,2013-03-08 20:17:00,
2013-03-08 14:22:00,34.7,27.6,30.04,SSE,157,13.8,16.1,75,0.02,CLR,SKC,0.04,WeatherDisplay:10.37,2013-03-08 20:22:00,
2013-03-08 14:27:00,34.7,27.6,30.03,SSE,155,11.6,15.0,75,0.02,CLR,SKC,0.04,WeatherDisplay:10.37,2013-03-08 20:27:00,
2013-03-08 14:32:00,34.7,27.6,30.03,SSE,148,12.1,14.0,75,0.02,CLR,SKC,0.04,WeatherDisplay:10.37,2013-03-08 20:32:00,
2013-03-08 14:37:00,34.8,27.7,30.03,SSE,164,10.1,13.8,75,0.02,CLR,SKC,0.04,WeatherDisplay:10.37,2013-03-08 20:37:00,
2013-03-08 14:42:00,35.0,27.9,30.03,SSE,150,9.3,12.0,75,0.03,RA,SKC,0.05,WeatherDisplay:10.37,2013-03-08 20:42:00,
2013-03-08 14:47:00,35.3,28.2,30.03,SSE,148,9.0,11.5,75,0.03,RA,SKC,0.05,WeatherDisplay:10.37,2013-03-08 20:47:00,
2013-03-08 14:52:00,35.3,28.2,30.03,SE,145,11.0,13.0,75,0.02,CLR,SKC,0.05,WeatherDisplay:10.37,2013-03-08 20:52:00,
2013-03-08 14:57:00,35.2,28.1,30.03,SE,139,11.1,12.0,75,0.02,CLR,SKC,0.05,WeatherDisplay:10.37,2013-03-08 20:57:00,
2013-03-08 15:02:00,35.1,28.0,30.03,SSE,149,11.2,13.0,75,0.02,CLR,SKC,0.05,WeatherDisplay:10.37,2013-03-08 21:02:00,
2013-03-08 15:07:00,35.0,27.9,30.03,SE,145,11.5,14.0,75,0.02,CLR,SKC,0.05,WeatherDisplay:10.37,2013-03-08 21:07:00,
2013-03-08 15:12:00,34.7,27.6,30.03,SSE,150,11.0,13.8,75,0.01,CLR,SKC,0.05,WeatherDisplay:10.37,2013-03-08 21:12:00,
2013-03-08 15:17:00,34.5,27.4,30.03,SSE,148,11.4,15.0,75,0.01,CLR,SKC,0.05,WeatherDisplay:10.37,2013-03-08 21:17:00,
2013-03-08 15:22:00,34.4,27.3,30.03,SE,146,12.8,16.1,75,0.01,CLR,SKC,0.05,WeatherDisplay:10.37,2013-03-08 21:22:00,
2013-03-08 15:27:00,34.5,27.4,30.03,SSE,153,12.4,15.0,75,0.01,CLR,SKC,0.05,WeatherDisplay:10.37,2013-03-08 21:27:00,
2013-03-08 15:32:00,34.6,27.5,30.03,SSE,149,12.8,16.0,75,0.01,CLR,SKC,0.05,WeatherDisplay:10.37,2013-03-08 21:32:00,
2013-03-08 15:37:00,34.4,27.3,30.03,SE,141,11.2,13.8,75,0.01,CLR,SKC,0.05,WeatherDisplay:10.37,2013-03-08 21:37:00,
2013-03-08 15:42:00,34.3,27.5,30.03,SSE,151,13.1,16.0,76,0.00,CLR,SKC,0.05,WeatherDisplay:10.37,2013-03-08 21:42:00,
2013-03-08 15:47:00,34.4,27.3,30.03,SE,141,12.0,16.1,75,0.00,CLR,SKC,0.05,WeatherDisplay:10.37,2013-03-08 21:47:00,
2013-03-08 15:52:00,34.3,27.2,30.02,SE,143,13.2,15.0,75,0.00,CLR,SKC,0.06,WeatherDisplay:10.37,2013-03-08 21:52:00,
2013-03-08 15:57:00,34.4,27.6,30.02,SE,140,11.8,15.0,76,0.01,RA,SKC,0.06,WeatherDisplay:10.37,2013-03-08 21:57:00,
2013-03-08 16:02:00,34.8,28.0,30.02,SSE,148,10.8,14.0,76,0.01,RA,SKC,0.06,WeatherDisplay:10.37,2013-03-08 22:02:00,
2013-03-08 16:08:00,35.0,27.9,30.02,SSE,151,12.7,16.1,75,0.01,CLR,SKC,0.06,WeatherDisplay:10.37,2013-03-08 22:08:00,
2013-03-08 16:13:00,34.8,28.0,30.01,SE,142,14.1,16.1,76,0.01,CLR,SKC,0.06,WeatherDisplay:10.37,2013-03-08 22:13:00,
2013-03-08 16:18:00,34.8,27.7,30.01,SE,143,12.5,17.0,75,0.01,CLR,SKC,0.06,WeatherDisplay:10.37,2013-03-08 22:18:00,
2013-03-08 16:23:00,34.9,27.8,30.01,SE,138,12.5,16.1,75,0.01,CLR,SKC,0.06,WeatherDisplay:10.37,2013-03-08 22:23:00,
2013-03-08 16:28:00,34.8,27.7,30.01,SSE,153,12.4,16.1,75,0.01,CLR,SKC,0.06,WeatherDisplay:10.37,2013-03-08 22:28:00,
2013-03-08 16:33:00,34.6,27.5,30.01,SE,142,12.1,15.0,75,0.01,CLR,SKC,0.06,WeatherDisplay:10.37,2013-03-08 22:33:00,
2013-03-08 16:38:00,34.6,27.5,30.00,SE,142,12.4,16.1,75,0.01,CLR,SKC,0.06,WeatherDisplay:10.37,2013-03-08 22:38:00,
2013-03-08 16:43:00,34.5,27.4,30.00,SSE,149,13.9,16.1,75,0.01,CLR,SKC,0.06,WeatherDisplay:10.37,2013-03-08 22:43:00,
2013-03-08 16:48:00,34.5,27.4,30.00,SE,143,14.9,17.3,75,0.01,CLR,SKC,0.06,WeatherDisplay:10.37,2013-03-08 22:48:00,
2013-03-08 16:53:00,34.4,27.3,30.00,SE,144,13.4,19.6,75,0.00,CLR,SKC,0.06,WeatherDisplay:10.37,2013-03-08 22:53:00,
2013-03-08 16:58:00,34.4,27.3,30.00,SSE,147,12.4,16.1,75,0.00,CLR,SKC,0.06,WeatherDisplay:10.37,2013-03-08 22:58:00,
2013-03-08 17:03:00,34.3,27.2,30.00,SE,139,13.2,16.1,75,0.00,CLR,SKC,0.06,WeatherDisplay:10.37,2013-03-08 23:03:00,
2013-03-08 17:08:00,34.2,27.4,30.00,SE,141,10.8,16.1,76,0.00,CLR,SKC,0.06,WeatherDisplay:10.37,2013-03-08 23:08:00,
2013-03-08 17:13:00,34.1,27.3,30.00,SE,137,13.4,16.1,76,0.00,CLR,SKC,0.06,WeatherDisplay:10.37,2013-03-08 23:13:00,
2013-03-08 17:18:00,34.0,27.2,30.00,SE,140,12.2,18.4,76,0.00,CLR,SKC,0.06,WeatherDisplay:10.37,2013-03-08 23:18:00,
2013-03-08 17:23:00,33.9,27.1,30.00,SE,139,12.1,15.0,76,0.00,CLR,SKC,0.06,WeatherDisplay:10.37,2013-03-08 23:23:00,
2013-03-08 17:29:00,33.8,27.0,30.00,SSE,152,12.5,15.0,76,0.00,CLR,SKC,0.06,WeatherDisplay:10.37,2013-03-08 23:29:00,
2013-03-08 17:34:00,33.7,26.9,30.00,SSE,167,14.7,18.4,76,0.00,CLR,SKC,0.06,WeatherDisplay:10.37,2013-03-08 23:34:00,
2013-03-08 17:39:00,33.7,26.9,30.00,SSE,155,13.2,17.3,76,0.00,CLR,SKC,0.06,WeatherDisplay:10.37,2013-03-08 23:39:00,
2013-03-08 17:45:00,33.5,26.7,30.00,SSE,155,10.8,13.8,76,0.00,CLR,SKC,0.06,WeatherDisplay:10.37,2013-03-08 23:45:00,
2013-03-08 17:50:00,33.5,26.7,30.00,SE,143,10.8,16.1,76,0.00,CLR,SKC,0.06,WeatherDisplay:10.37,2013-03-08 23:50:00,
2013-03-08 17:55:00,33.4,26.6,30.00,SSE,150,14.2,17.3,76,0.00,CLR,SKC,0.06,WeatherDisplay:10.37,2013-03-08 23:55:00,
2013-03-08 18:00:00,33.4,26.6,30.00,SSE,150,12.6,18.4,76,0.00,CLR,SKC,0.06,WeatherDisplay:10.37,2013-03-09 00:00:00,
2013-03-08 18:05:00,33.2,26.5,29.99,ESE,122,12.7,17.3,76,0.00,CLR,SKC,0.06,WeatherDisplay:10.37,2013-03-09 00:05:00,
2013-03-08 18:10:00,33.0,26.3,29.99,SE,146,10.4,14.0,76,0.00,CLR,SKC,0.06,WeatherDisplay:10.37,2013-03-09 00:10:00,
2013-03-08 18:15:00,32.9,26.5,29.99,SE,129,11.9,14.0,77,0.00,CLR,SKC,0.06,WeatherDisplay:10.37,2013-03-09 00:15:00,
2013-03-08 18:20:00,32.9,26.5,29.99,SE,146,9.5,13.8,77,0.00,CLR,SKC,0.06,WeatherDisplay:10.37,2013-03-09 00:20:00,
2013-03-08 18:25:00,32.8,26.1,29.98,SE,127,11.0,13.0,76,0.00,CLR,SKC,0.06,WeatherDisplay:10.37,2013-03-09 00:25:00,
2013-03-08 18:30:00,32.7,26.3,29.98,ESE,117,12.1,16.1,77,0.00,CLR,SKC,0.06,WeatherDisplay:10.37,2013-03-09 00:30:00,
2013-03-08 18:35:00,32.3,25.9,29.98,SE,132,11.4,15.0,77,0.00,CLR,SKC,0.06,WeatherDisplay:10.37,2013-03-09 00:35:00,
2013-03-08 18:40:00,32.3,25.9,29.97,SE,130,13.2,18.4,77,0.00,CLR,SKC,0.06,WeatherDisplay:10.37,2013-03-09 00:40:00,
2013-03-08 18:45:00,32.5,26.1,29.97,SE,134,14.6,19.6,77,0.00,CLR,SKC,0.06,WeatherDisplay:10.37,2013-03-09 00:45:00,
2013-03-08 18:50:00,32.6,26.2,29.97,SE,132,14.1,17.3,77,0.00,CLR,SKC,0.06,WeatherDisplay:10.37,2013-03-09 00:50:00,
2013-03-08 18:55:00,32.7,26.3,29.97,ESE,119,15.2,18.4,77,0.00,CLR,SKC,0.06,WeatherDisplay:10.37,2013-03-09 00:55:00,
2013-03-08 19:00:00,32.6,26.2,29.96,SE,143,12.9,17.3,77,0.00,CLR,SKC,0.06,WeatherDisplay:10.37,2013-03-09 01:00:00,
2013-03-08 19:05:00,32.6,26.2,29.97,SE,138,11.6,16.1,77,0.00,CLR,SKC,0.06,WeatherDisplay:10.37,2013-03-09 01:05:00,
2013-03-08 19:10:00,32.6,26.2,29.96,SE,144,12.6,16.1,77,0.00,CLR,SKC,0.06,WeatherDisplay:10.37,2013-03-09 01:10:00,
2013-03-08 19:15:00,32.6,26.2,29.96,SE,140,14.8,18.4,77,0.00,CLR,SKC,0.06,WeatherDisplay:10.37,2013-03-09 01:15:00,
2013-03-08 19:20:00,32.7,26.3,29.96,SSE,158,14.2,20.7,77,0.00,CLR,SKC,0.06,WeatherDisplay:10.37,2013-03-09 01:20:00,
2013-03-08 19:25:00,32.8,26.4,29.95,SE,130,13.2,18.4,77,0.00,CLR,SKC,0.06,WeatherDisplay:10.37,2013-03-09 01:25:00,
2013-03-08 19:30:00,32.7,26.3,29.95,SSE,155,14.4,18.4,77,0.00,CLR,SKC,0.06,WeatherDisplay:10.37,2013-03-09 01:30:00,
2013-03-08 19:35:00,32.8,26.4,29.95,SSE,154,15.5,20.0,77,0.00,CLR,SKC,0.06,WeatherDisplay:10.37,2013-03-09 01:35:00,
2013-03-08 19:40:00,33.1,26.7,29.95,SE,140,15.6,20.0,77,0.00,CLR,SKC,0.06,WeatherDisplay:10.37,2013-03-09 01:40:00,
2013-03-08 19:45:00,33.1,26.4,29.95,SSE,150,17.1,22.0,76,0.00,CLR,SKC,0.06,WeatherDisplay:10.37,2013-03-09 01:45:00,
2013-03-08 19:50:00,33.0,26.3,29.95,SE,142,14.0,19.6,76,0.00,CLR,SKC,0.06,WeatherDisplay:10.37,2013-03-09 01:50:00,
2013-03-08 19:55:00,33.1,26.4,29.95,SSE,153,12.8,19.6,76,0.00,CLR,SKC,0.06,WeatherDisplay:10.37,2013-03-09 01:55:00,
2013-03-08 20:00:00,32.9,26.2,29.95,SE,131,15.5,18.4,76,0.00,CLR,SKC,0.06,WeatherDisplay:10.37,2013-03-09 02:00:00,
2013-03-08 20:05:00,32.9,26.2,29.95,SE,144,14.0,18.4,76,0.00,CLR,SKC,0.06,WeatherDisplay:10.37,2013-03-09 02:05:00,
2013-03-08 20:10:00,32.8,26.1,29.95,SSE,151,15.4,20.0,76,0.00,CLR,SKC,0.06,WeatherDisplay:10.37,2013-03-09 02:10:00,
2013-03-08 20:15:00,32.9,26.2,29.95,SE,126,14.0,18.4,76,0.00,CLR,SKC,0.06,WeatherDisplay:10.37,2013-03-09 02:15:00,
2013-03-08 20:20:00,32.9,26.2,29.94,SE,138,15.5,21.9,76,0.00,CLR,SKC,0.06,WeatherDisplay:10.37,2013-03-09 02:20:00,
2013-03-08 20:25:00,32.8,26.1,29.94,South,170,17.1,20.0,76,0.00,CLR,SKC,0.06,WeatherDisplay:10.37,2013-03-09 02:25:00,
2013-03-08 20:30:00,32.6,26.2,29.94,ESE,121,16.8,20.0,77,0.00,CLR,SKC,0.06,WeatherDisplay:10.37,2013-03-09 02:30:00,
2013-03-08 20:35:00,32.6,26.2,29.94,SE,138,18.3,24.2,77,0.00,CLR,SKC,0.06,WeatherDisplay:10.37,2013-03-09 02:35:00,
2013-03-08 20:40:00,32.6,26.2,29.94,SSE,147,16.9,20.7,77,0.00,CLR,SKC,0.06,WeatherDisplay:10.37,2013-03-09 02:40:00,
2013-03-08 20:45:00,32.7,26.3,29.94,SE,138,17.8,20.0,77,0.00,CLR,SKC,0.06,WeatherDisplay:10.37,2013-03-09 02:45:00,
2013-03-08 20:50:00,32.7,26.3,29.94,SE,143,14.7,20.0,77,0.00,CLR,SKC,0.06,WeatherDisplay:10.37,2013-03-09 02:50:00,
2013-03-08 20:55:00,32.6,26.2,29.94,ESE,121,14.3,18.4,77,0.00,CLR,SKC,0.06,WeatherDisplay:10.37,2013-03-09 02:55:00,
2013-03-08 21:00:00,32.6,26.2,29.94,SE,141,14.7,19.6,77,0.00,CLR,SKC,0.06,WeatherDisplay:10.37,2013-03-09 03:00:00,
2013-03-08 21:05:00,32.6,26.2,29.94,SSE,148,15.1,19.6,77,0.00,CLR,SKC,0.06,WeatherDisplay:10.37,2013-03-09 03:05:00,
2013-03-08 21:10:00,32.6,26.2,29.94,SE,142,16.0,23.0,77,0.00,CLR,SKC,0.06,WeatherDisplay:10.37,2013-03-09 03:10:00,
2013-03-08 21:15:00,32.5,26.1,29.93,SE,145,13.2,19.6,77,0.00,CLR,SKC,0.06,WeatherDisplay:10.37,2013-03-09 03:15:00,
2013-03-08 21:20:00,32.5,26.1,29.93,SE,127,14.8,19.6,77,0.00,CLR,SKC,0.06,WeatherDisplay:10.37,2013-03-09 03:20:00,
2013-03-08 21:25:00,32.6,26.2,29.93,SSE,150,15.2,20.7,77,0.00,CLR,SKC,0.06,WeatherDisplay:10.37,2013-03-09 03:25:00,
2013-03-08 21:30:00,32.5,26.1,29.93,SSE,150,15.9,20.7,77,0.00,CLR,SKC,0.06,WeatherDisplay:10.37,2013-03-09 03:30:00,
2013-03-08 21:35:00,32.6,25.9,29.93,SE,143,16.4,21.9,76,0.00,CLR,SKC,0.06,WeatherDisplay:10.37,2013-03-09 03:35:00,
2013-03-08 21:40:00,32.5,26.1,29.93,SE,133,17.2,22.0,77,0.00,CLR,SKC,0.06,WeatherDisplay:10.37,2013-03-09 03:40:00,
2013-03-08 21:46:00,32.5,26.1,29.93,SE,139,15.2,19.6,77,0.00,CLR,SKC,0.06,WeatherDisplay:10.37,2013-03-09 03:46:00,
2013-03-08 21:51:00,32.4,26.0,29.93,SE,144,15.3,20.7,77,0.00,CLR,SKC,0.06,WeatherDisplay:10.37,2013-03-09 03:51:00,
2013-03-08 21:56:00,32.5,26.1,29.93,SE,146,16.3,19.6,77,0.00,CLR,SKC,0.06,WeatherDisplay:10.37,2013-03-09 03:56:00,
2013-03-08 22:01:00,32.5,26.1,29.93,SE,146,16.2,20.7,77,0.00,CLR,SKC,0.06,WeatherDisplay:10.37,2013-03-09 04:01:00,
2013-03-08 22:06:00,32.6,26.2,29.93,SE,133,16.9,21.0,77,0.00,CLR,SKC,0.06,WeatherDisplay:10.37,2013-03-09 04:06:00,
2013-03-08 22:11:00,32.7,26.3,29.92,SE,135,14.8,19.0,77,0.00,CLR,SKC,0.06,WeatherDisplay:10.37,2013-03-09 04:11:00,
2013-03-08 22:16:00,32.7,26.3,29.92,SSE,155,14.9,19.6,77,0.00,CLR,SKC,0.06,WeatherDisplay:10.37,2013-03-09 04:16:00,
2013-03-08 22:21:00,32.8,26.4,29.92,SE,146,17.4,20.7,77,0.00,SCT,SKC,0.06,WeatherDisplay:10.37,2013-03-09 04:21:00,
2013-03-08 22:26:00,32.8,26.4,29.91,SE,141,14.9,18.0,77,0.00,SCT,SKC,0.06,WeatherDisplay:10.37,2013-03-09 04:26:00,
2013-03-08 22:31:00,32.8,26.4,29.91,SSE,150,18.0,21.0,77,0.00,SCT,SKC,0.06,WeatherDisplay:10.37,2013-03-09 04:31:00,
2013-03-08 22:36:00,33.1,26.7,29.91,SSE,151,18.4,21.9,77,0.00,SCT,SKC,0.06,WeatherDisplay:10.37,2013-03-09 04:36:00,
2013-03-08 22:41:00,33.4,27.0,29.91,SE,144,15.4,18.4,77,0.00,BKN,SKC,0.06,WeatherDisplay:10.37,2013-03-09 04:41:00,
2013-03-08 22:46:00,33.5,27.1,29.90,SSE,155,16.5,21.0,77,0.00,BKN,SKC,0.06,WeatherDisplay:10.37,2013-03-09 04:46:00,
2013-03-08 22:51:00,33.5,27.1,29.90,SSE,154,15.8,19.6,77,0.00,BKN,SKC,0.06,WeatherDisplay:10.37,2013-03-09 04:51:00,
2013-03-08 22:56:00,33.7,27.3,29.90,SE,139,16.9,21.9,77,0.00,BKN,SKC,0.06,WeatherDisplay:10.37,2013-03-09 04:56:00,
2013-03-08 23:00:00,33.7,27.3,29.90,SSE,152,13.9,19.6,77,0.00,BKN,SKC,0.06,WeatherDisplay:10.37,2013-03-09 05:00:00,
2013-03-08 23:05:00,33.8,27.4,29.90,SE,134,15.3,20.7,77,0.00,-SN,SKC,0.06,WeatherDisplay:10.37,2013-03-09 05:05:00,
2013-03-08 23:06:00,33.8,27.4,29.90,SE,146,16.0,23.0,77,0.00,-SN,SKC,0.06,WeatherDisplay:10.37,2013-03-09 05:06:00,
2013-03-08 23:10:00,33.8,27.4,29.89,SSE,148,18.6,22.0,77,0.00,-SN,SKC,0.06,WeatherDisplay:10.37,2013-03-09 05:10:00,
2013-03-08 23:15:00,33.7,27.3,29.89,SSE,153,16.1,19.6,77,0.00,-SN,SKC,0.06,WeatherDisplay:10.37,2013-03-09 05:15:00,
2013-03-08 23:17:00,33.6,27.2,29.89,SSE,148,19.0,21.0,77,0.00,-SN,SKC,0.06,WeatherDisplay:10.37,2013-03-09 05:17:00,
2013-03-08 23:22:00,33.5,27.4,29.89,SE,143,18.7,21.0,78,0.00,OVC,SKC,0.06,WeatherDisplay:10.37,2013-03-09 05:22:00,
2013-03-08 23:27:00,33.4,27.3,29.89,SSE,157,16.5,20.7,78,0.00,OVC,SKC,0.06,WeatherDisplay:10.37,2013-03-09 05:27:00,
2013-03-08 23:32:00,33.3,27.2,29.89,SSE,153,17.3,20.7,78,0.00,OVC,SKC,0.06,WeatherDisplay:10.37,2013-03-09 05:32:00,
2013-03-08 23:37:00,33.3,27.2,29.89,SSE,155,16.0,20.7,78,0.00,OVC,SKC,0.06,WeatherDisplay:10.37,2013-03-09 05:37:00,
2013-03-08 23:42:00,33.2,27.1,29.89,SE,142,16.3,20.7,78,0.00,OVC,SKC,0.06,WeatherDisplay:10.37,2013-03-09 05:42:00,
2013-03-08 23:47:00,33.2,27.1,29.88,SE,145,16.4,19.6,78,0.00,OVC,SKC,0.06,WeatherDisplay:10.37,2013-03-09 05:47:00,
2013-03-08 23:52:00,33.2,27.4,29.88,SSE,155,17.7,20.7,79,0.00,OVC,SKC,0.06,WeatherDisplay:10.37,2013-03-09 05:52:00,
2013-03-08 23:57:00,33.1,27.3,29.88,SSE,156,16.7,20.7,79,0.00,OVC,SKC,0.06,WeatherDisplay:10.37,2013-03-09 05:57:00,